Curacao, Curacao

12:34 AM AST on September 20, 2017 (GMT -0400)
Willemstad-Hato International

Weather History for TNCC - November, 2012

Change the Weather History Date:

Tuesday, November 27, 2012

  Actual Average Record
Temperature  
Mean Temperature 80 °F -  
Max Temperature 84 °F 84 °F 90 °F (2015)
Min Temperature 75 °F 75 °F 75 °F (2001)
Cooling Degree Days 14    
Growing Degree Days 30 (Base 50)    
Moisture  
Dew Point 74 °F    
Average Humidity 84    
Maximum Humidity 94    
Minimum Humidity 70    
Precipitation  
Precipitation 0.28 in 0.13 in - ()
Sea Level Pressure  
Sea Level Pressure 29.92 in    
Wind  
Wind Speed 10 mph ()    
Max Wind Speed 17 mph    
Max Gust Speed 37 mph    
Visibility 8.0 miles    
Events Rain    
Averages and records for this station are not official NWS values.
T = Trace of Precipitation, MM = Missing Value Source: Averaged Metar Reports

Daily Weather History Graph

Daily Weather History Graph

Search for Another Location

Airport or City:

Trip Planner

Search our weather history database for the weather conditions in past years. The results will help you decide how hot, cold, wet, or windy it might be!

Date:

Astronomy

Nov. 27, 2012 Rise Set
Actual Time 6:39 AM AST 6:08 PM AST
Civil Twilight 6:16 AM AST 6:30 PM AST
Nautical Twilight 5:50 AM AST 6:56 PM AST
Astronomical Twilight 5:24 AM AST 7:22 PM AST
Moon 5:34 PM AST (11/27) 5:45 AM AST (11/27)
Length of Visible Light 12h 14m
Length of Day
11h 28m
Waxing Gibbous, 99% of the Moon is Illuminated
Nov 27
Waxing Gibbous
Nov 28
Full
Dec 6
Last Quarter
Dec 13
New
Dec 20
First Quarter

Hourly Weather History & Observations

Time (AST) Temp. Heat Index Dew Point Humidity Pressure Visibility Wind Dir Wind Speed Gust Speed Precip Events Conditions
12:00 AM 78.8 °F - 75.2 °F 89% 29.95 in 6.2 mi ESE 11.5 mph - N/A   Scattered Clouds
1:00 AM 78.8 °F - 75.2 °F 89% 29.92 in 6.2 mi East 13.8 mph - N/A   Scattered Clouds
2:00 AM 78.8 °F - 75.2 °F 89% 29.92 in - North - - N/A   Scattered Clouds
3:00 AM 77.0 °F - 75.2 °F 94% 29.89 in 6.2 mi East 12.7 mph - N/A   Scattered Clouds
4:00 AM 78.8 °F - 71.6 °F 78% 29.89 in 6.2 mi East 11.5 mph - N/A   Scattered Clouds
5:00 AM 78.8 °F - 75.2 °F 89% 29.92 in 6.2 mi East 10.4 mph - N/A   Scattered Clouds
6:00 AM 78.8 °F - 73.4 °F 83% 29.92 in 6.2 mi East 11.5 mph - N/A   Scattered Clouds
7:00 AM 78.8 °F - 75.2 °F 89% 29.92 in 6.2 mi East 10.4 mph - N/A   Scattered Clouds
8:00 AM 81 °F - 75 °F 78% 29.96 in 19 mi East 10.4 mph - -   Partly Cloudy
8:00 AM 80.6 °F 86.2 °F 75.2 °F 84% 29.95 in 6.2 mi ESE 10.4 mph - N/A   Scattered Clouds
9:00 AM 80.6 °F 86.2 °F 75.2 °F 84% 29.98 in 6.2 mi East 10.4 mph - N/A   Scattered Clouds
10:00 AM 82.4 °F 89.5 °F 75.2 °F 79% 29.98 in 6.2 mi East 11.5 mph - N/A   Scattered Clouds
11:00 AM 83 °F - 75 °F 70% 29.99 in 22 mi East 11.5 mph - -   Partly Cloudy
11:00 AM 84.2 °F 92.3 °F 75.2 °F 74% 29.98 in 6.2 mi East 11.5 mph - N/A   Scattered Clouds
12:00 PM 77.0 °F - 73.4 °F 89% 29.98 in 1.9 mi East 17.3 mph 36.8 mph N/A Rain Heavy Rain Showers
1:00 PM 82.4 °F 90.9 °F 77.0 °F 84% 29.95 in 6.2 mi East 10.4 mph - N/A   Partly Cloudy
2:00 PM 77 °F - 72 °F 82% 29.92 in 16 mi East 12.7 mph - - Rain Light Rain Showers
2:00 PM 75.2 °F - 71.6 °F 89% 29.92 in 6.2 mi East 15.0 mph - N/A Rain Light Rain Showers
3:00 PM 82.4 °F 89.5 °F 75.2 °F 79% 29.89 in 6.2 mi East 11.5 mph - N/A   Partly Cloudy
4:00 PM 82.4 °F 88.2 °F 73.4 °F 74% 29.89 in 6.2 mi East 11.5 mph - N/A   Partly Cloudy
5:00 PM 80 °F - 75 °F 81% 29.88 in 19 mi East 10.4 mph - -   Partly Cloudy
5:00 PM 80.6 °F 86.2 °F 75.2 °F 84% 29.86 in 6.2 mi East 10.4 mph - N/A   Scattered Clouds
6:00 PM 77.0 °F - 75.2 °F 94% 29.86 in 6.2 mi SE 5.8 mph - N/A   Scattered Clouds
7:00 PM 77.0 °F - 73.4 °F 89% 29.89 in 6.2 mi SE 6.9 mph - N/A   Partly Cloudy
8:00 PM 76 °F - 74 °F 91% 29.91 in 16 mi ESE 6.9 mph - -   Partly Cloudy
8:00 PM 77.0 °F - 73.4 °F 89% 29.89 in 6.2 mi ESE 6.9 mph - N/A   Partly Cloudy
9:00 PM 78.8 °F - 73.4 °F 83% 29.92 in 6.2 mi East 10.4 mph - N/A   Partly Cloudy
10:00 PM 78.8 °F - 73.4 °F 83% 29.92 in 6.2 mi East 10.4 mph - N/A   Partly Cloudy
11:00 PM 79 °F - 73 °F 76% 29.94 in 16 mi East 9.2 mph - -   Partly Cloudy
11:00 PM 78.8 °F - 73.4 °F 83% 29.95 in 6.2 mi East 9.2 mph - N/A   Partly Cloudy